Starlink 30380

operational
NORAD ID: 57780 Int'l Des: 2023-134 Owner: SPXS Country: US Constellation: starlink
LEOCIRCULAR

About Starlink 30380

Description loading...

Live Position

Loading 3D Globe...

Upcoming Passes

Altitude History

Altitude vs Time

uPlot chart will show altitude changes over time

Two-Line Element Set

1 57780U 23134K 25259.71563712 .00000575 00000-0 57621-4 0 9997
2 57780 43.0063 62.6026 0001231 269.1636 90.9066 15.02536999113304
Epoch: Sep 16, 2025 • Age: 33 hours

Current Status

Altitude 568.7 km
Velocity 7.58 km/s
Sub-Earth Point -36.09°S, 29.45°W
Launch Date Sep 4, 2023
Age 2 years
Type internet

Technical Details

Classification Payload
Mass 730.00 kg
Dry Mass 700.00 kg
Total Mass 730.00 kg
Length 0.30 m
Diameter 4.10 m
Span 29.00 m
Shape Box + pan
Manufacturer SPXS
Bus Type Starlink V2M
Phase Status In Orbit
Owner/State SPXS/US

Large Constellations

Loading constellations...